Regional Weather Roundup
Issued by NWS Upton, NY

Current Version | Previous Version | Graphics & Text | Print | Product List | Glossary Off
Versions: 1 2 3 4 5 6 7 8 9 10 11 12 13 14 15 16 17 18 19 20 21 22 23 24 25 26 27

000
ASUS41 KOKX 021304
RWROKX

REGIONAL WEATHER ROUNDUP
NATIONAL WEATHER SERVICE NEW YORK NY
900 AM EDT MON MAY 02 2016

NOTE: "FAIR" INDICATES FEW OR NO CLOUDS BELOW 12,000 FEET WITH NO
SIGNIFICANT WEATHER AND/OR OBSTRUCTIONS TO VISIBILITY.

NYZ071-072-176-178-NJZ106-104-021400-
NEW YORK CITY METRO AREA


CITY           SKY/WX    TMP DP  RH WIND       PRES   REMARKS
CENTRAL PARK   CLOUDY    48  45  89 CALM      30.02R FOG
LAGUARDIA APRT CLOUDY    49  45  86 NE5       30.00S FOG
KENNEDY INTL   CLOUDY    49  47  93 CALM      30.01S FOG
NEWARK/LIBERTY CLOUDY    50  46  86 VRB3      30.01R FOG
BRNX BOT. GARD   N/A     46  45  93 E3        29.99S
TETERBORO      CLOUDY    48  44  86 CALM      30.00R FOG
$$

NYZ177-179-078>081-021400-
LONG ISLAND NEW YORK

CITY           SKY/WX    TMP DP  RH WIND       PRES   REMARKS
FARMINGDALE    CLOUDY    49  47  93 E6        29.99F FOG
ISLIP          CLOUDY    49  47  93 NE6       29.98F FOG
SHIRLEY        CLOUDY    49  47  93 VRB3      30.00S
RIVERHEAD        N/A     48  46  93 NE3       30.00S
WESTHAMPTON    CLOUDY    46  46 100 NE7       30.01S FOG
EAST HAMPTON   CLOUDY    47  46  97 NE6       30.00F
MONTAUK POINT    N/A     48  46  93 N7        30.01F
$$

NYZ052-065-067-021400-
HUDSON VALLEY

CITY           SKY/WX    TMP DP  RH WIND       PRES   REMARKS
WHITE PLAINS   FOG       46  45  96 E5        29.97F VSB 1/4
NEWBURGH       DRIZZLE   45  45 100 E7        29.96F FOG
MONTGOMERY     LGT RAIN  45  43  93 CALM      29.97F
POUGHKEEPSIE   LGT RAIN  47  43  86 NE3       29.97F
ALBANY         CLOUDY    47  41  80 S3        29.98F
$$

NJZ001-105-106-008-010-013-015-019>022-104-021400-
NEW JERSEY

CITY           SKY/WX    TMP DP  RH WIND       PRES   REMARKS
NEWARK/LIBERTY CLOUDY    50  46  86 VRB3      30.01R FOG
TETERBORO      CLOUDY    48  44  86 CALM      30.00R FOG
CALDWELL       CLOUDY    47  44  90 S3        30.00S FOG
MORRISTOWN     CLOUDY    46  46 100 CALM      30.00S FOG
SOMERVILLE     FOG       47  45  93 CALM      30.00R VSB 3/4
SUSSEX         LGT RAIN  46  43  89 CALM      29.98R
ANDOVER          N/A     45  44  97 VRB3      29.99R
TRENTON        CLOUDY    47  47 100 CALM      30.01R FOG
MILLVILLE      CLOUDY    50  49  96 CALM      30.00S FOG
ATLANTIC CITY  CLOUDY    50  50 100 E8        30.00R FOG
WRIGHTSTOWN    CLOUDY    48  46  93 S1        29.99R FOG
TOMS RIVER     CLOUDY    48  45  87 E5        30.00R
BELMAR         CLOUDY    48  48 100 VRB3      30.01S
$$

PAZ047>061-062-071-021400-
EASTERN PENNSYLVANIA

CITY           SKY/WX    TMP DP  RH WIND       PRES   REMARKS
PHILADELPHIA   CLOUDY    50  46  86 VRB3      30.02R
ALLENTOWN      CLOUDY    48  45  89 CALM      30.01R FOG
SCRANTON       LGT RAIN  48  46  93 VRB5      29.95S FOG
$$

CTZ002-004>006-009-010-012-RIZ004-006-007-MAZ004-011-015-021400-
SOUTHERN NEW ENGLAND
 IN CT

CITY           SKY/WX    TMP DP  RH WIND       PRES   REMARKS
BRADLEY INTL   DRIZZLE   44  42  93 N7        30.02F FOG
HARTFORD       CLOUDY    47  43  86 N6        30.02F
DANBURY        CLOUDY    44  43  96 E7        29.99F FOG
WTRBRY/OXFORD  FOG       43  39  87 E6        30.01F VSB 1/4
BRIDGEPORT     CLOUDY    48  45  89 NE7       30.00F
MERIDEN        CLOUDY    45  42  89 N6        30.02F FOG
NEW HAVEN      CLOUDY    46  44  93 N7        30.00F FOG
CHESTER        FOG       45  45 100 N6        30.00F VSB 1
GROTON         CLOUDY    50  50 100 NE7       30.00S
WILLIMANTIC    CLOUDY    49  44  83 NE5       30.02S

 IN RI

CITY           SKY/WX    TMP DP  RH WIND       PRES   REMARKS
PROVIDENCE     CLOUDY    49  46  90 N8        30.03R FOG
BLOCK ISLAND   CLOUDY    48  47  96 NE9       30.01S
WESTERLY       CLOUDY    51  47  86 NE5       30.01S

 IN MA

CITY           SKY/WX    TMP DP  RH WIND       PRES   REMARKS
BOSTON         NOT AVBL
WORCESTER      FOG       42  41  96 NE8       30.02F VSB<1/4
WESTFIELD      CLOUDY    43  41  93 N6        30.03S FOG
PROVINCETOWN   CLOUDY    49  48  97 E13       30.01F
NANTUCKET      CLOUDY    51  48  89 E16       29.97F FOG
$$

ANZ330-335-338-340-345-350-353-355-021400-
COASTAL MARINE OBSERVATIONS


STATION/POSITION TIME  SKY/WX   TEMP    WIND        PRES    VSBY  WAVE
                                AIR SEA DIR/SP/G                  HT/PER
                 (UTC)          (F)     (DEG/KT/KT) (MB)    (MI)  (FT/S)
NY HARB ENTRANCE 1150            48 50   90/ 10/ 12 1015.2          4/11
20S FIRE ISLAND  1150            47 48   60/ 10/ 12 1015.6          5/11
GREAT SOUTH BAY  1200            48 55   30/  6/ 10   N/A
23 SSW MONTAUK P 1250            47 47   50/ 10/ 12 1015.0          4/10
15 E BARNEGAT LI 1222               51                N/A           5/11
HUDSON CANYON    1150            47 48              1015.6          5/10
KINGS POINT      1200            46 53              1015.6
EXECUTION ROCKS  NOT AVBL
CENTRAL LI SOUND 1200            47      40/  4/  8   N/A           1
EASTERN LI SOUND 1200            47 48   10/  6/  8   N/A
ROBBINS REEF     1200            47     110/  6/  6 1015.1
$$


>>>>>>>>>>>>>>>>>>>>>>>>>>>> KEY <<<<<<<<<<<<<<<<<<<<<<<<<<<
>                                                          <
>     SKY/WX - SKY CONDITION/PRESENT WEATHER               <
>     TMP    - TEMPERATURE IN FAHRENHEIT                   <
>     DP     - DEWPOINT IN FAHRENHEIT                      <
>     RH     - RELATIVE HUMIDITY IN PERCENT                <
>     WIND   - DIRECTION AND SPEED IN MPH                  <
>     PRES   - MEAN SEA LEVEL PRESSURE IN INCHES OF HG     <
>     WCI    - WIND CHILL INDEX                            <
>     VSB    - VISIBILITY IN MILES                         <
>     HX     - HEAT INDEX                                  <
>     TC     - TEMPERATURE IN CELSIUS                      <
>     VRB    - VARIABLE WIND DIRECTION                     <
>                                                          <
>>>>>>>>>>>>>>>>>>>>>>>>>>>> KEY <<<<<<<<<<<<<<<<<<<<<<<<<<<






USA.gov is the U.S. government's official web portal to all federal, state and local government web resources and services.